Regional Weather Roundup
Issued by NWS

Home | Current Version | Previous Version | Text Only | Print | Product List | Glossary Off
Versions: 1 2 3 4 5 6 7 8 9 10 11 12 13 14 15 16 17 18 19 20 21 22 23 24 25 26 27 28 29 30 31 32 33 34 35 36 37 38 39 40 41 42 43 44 45 46 47 48 49 50

175
ASUS44 KJAN 221510
RWRMS

MISSISSIPPI HOURLY WEATHER ROUNDUP
NATIONAL WEATHER SERVICE JACKSON MS
1000 AM CDT MON SEP 22 2014

NOTE: "FAIR: INDICATES FEW OR NO CLOUDS BELOW 12,000 FEET WITH NO
SIGNIFICANT WEATHER AND/OR OBSTRUCTIONS TO VISIBILITY.

MSZ001>002-007>008-010>013-018>021-025>028-034>036-221600-
NORTHWEST MISSISSIPPI

CITY           SKY/WX    TMP DP  RH WIND       PRES   REMARKS
CLARKSDALE     FAIR      70  54  56 N10       30.21S
CLEVELAND      FAIR      72  55  54 NE13G18   30.19S
GREENWOOD      SUNNY     73  56  54 NE8       30.17R
GREENVILLE     SUNNY     74  53  48 N13       30.17S
GRENADA        FAIR      70  52  52 NE10      30.18R
OLIVE BRANCH   SUNNY     64  55  72 NE9       30.22S
OXFORD         FAIR      66  52  59 NE9       30.22R
TUNICA         SUNNY     68  54  60 NE8       30.23R
$$

MSZ003>006-009-014>017-022>024-029>033-037>039-221600-
NORTHEAST MISSISSIPPI

CITY           SKY/WX    TMP DP  RH WIND       PRES   REMARKS
COLUMBUS AFB   SUNNY     71  53  52 N9        30.15R
CORINTH        FAIR      68  52  56 N10G16    30.19R
GOLDN TRIANGLE SUNNY     72  54  53 N10       30.16R
STARKVILLE     FAIR      70  54  56 N6        30.15R
TUPELO         SUNNY     68  53  58 NE8       30.17R
$$

MSZ040-058-221600-
CENTRAL MISSISSIPPI

CITY           SKY/WX    TMP DP  RH WIND       PRES   REMARKS
JACKSON INTL   MOSUNNY   76  58  53 N12       30.13R
JACKSON HAWKNS MOSUNNY   76  57  51 NE8       30.13R
MERIDIAN KEY   MOSUNNY   77  55  46 N15       30.11R
MERIDIAN NAS   MOSUNNY   77  56  48 NE10      30.12R
RAYMOND        FAIR      73  68  83 MISG      30.14R
VICKSBURG      MOSUNNY   76  58  53 NE13      30.15R
$$

MSZ059>079-221600-
SOUTH MISSISSIPPI

CITY           SKY/WX    TMP DP  RH WIND       PRES   REMARKS
BROOKHAVEN     FAIR      75  61  60 N10       30.12R
COLUMBIA       FAIR      79  70  73 NE9       30.06S
HATTIESBURG    SUNNY     79  69  71 NE7       30.07S
MCCOMB         SUNNY     77  64  64 NE9       30.09R
NATCHEZ        MOSUNNY   75  63  64 NE10      30.11S
PINE BELT      SUNNY    N/A N/A N/A NE8       30.09S
$$

MSZ080>082-221600-
COASTAL MISSISSIPPI

CITY           SKY/WX    TMP DP  RH WIND       PRES   REMARKS
BAY ST LOUIS   SUNNY     82  66  57 N9        30.05R
BILOXI         SUNNY     82  70  65 NE6       30.04S
PASCAGOULA     SUNNY     82  69  64 VRB7      30.04F
GULFPORT       SUNNY     84  69  60 N12       30.04R
$$



USA.gov is the U.S. government's official web portal to all federal, state and local government web resources and services.